User: anonymous   Login
Location: Caltech
(34.1382°N, 118.1253°W)
Time: 10:55:12
(UTC-07:00)
Language:

Iridium 62 - Orbit

View from above orbital plane
View from above orbital plane
View from above satellite
View from above satellite

Ground track
Ground track

The orbit data is extracted from the following two-line orbital elements,

1 25285U 98021A   14303.43142965  .00000569  00000-0  19605-3 0  9878
2 25285 086.3948 265.4703 0002074 101.7461 258.3968 14.34224918867316
Epoch (UTC): 30 October 2014 10:21:15
Eccentricity: 0.0002074
inclination: 86.3948°
perigee height: 776 km
apogee height: 779 km
right ascension of ascending node: 265.4703°
argument of perigee: 101.7461°
revolutions per day: 14.34224918
mean anomaly at epoch: 258.3968°
orbit number at epoch: 86731

The dashed part of the orbit path shows where the satellite is in the earth's shadow,  

DLR